Location: Amon Carter Post Office
(32.8281°N, 97.0484°W)
Time: 15:15:49
(UTC+00:00)

NOAA 12 - Pass Details

Date: 08 December 2021
Orbit: 795 x 815 km, 98.5° (Epoch: 25 January)

Event Time Altitude Azimuth Distance (km) Brightness Sun altitude
Rises 12:28:25 0° 11° (N) 3,313 7.2 -10.5°
Reaches altitude 10° 12:30:46 10° 10° (N) 2,377 6.4 -10.0°
Maximum altitude 12:36:01 81° 284° (WNW) 809 4.0 -9.0°
Drops below altitude 10° 12:41:13 10° 197° (SSW) 2,355 6.6 -8.0°
Sets 12:43:32 0° 197° (SSW) 3,280 7.3 -7.5°
